| time (UTC) | temp C | wind direction | speed KPH | gust KPH | rain 1hr cm | rain 24hr cm | rain mn cm | humidity % | barometer mb |
| 20260503011554 | 11 | 0 | 0.0 | 1.6 | 0.00 | 0.10 | 0.10 | 47 | 1010.8 |
| 20260503010047 | 11 | 0 | 0.0 | 0.0 | 0.00 | 0.10 | 0.10 | 47 | 1010.6 |
| 20260503004547 | 11 | 0 | 0.0 | 1.6 | 0.00 | 0.10 | 0.10 | 46 | 1010.4 |
| 20260503003059 | 12 | 0 | 0.0 | 0.0 | 0.00 | 0.10 | 0.10 | 47 | 1010.6 |
| 20260503001555 | 12 | 0 | 0.0 | 0.0 | 0.00 | 0.10 | 0.10 | 46 | 1010.3 |
| 20260503000048 | 12 | 0 | 0.0 | 1.6 | 0.00 | 0.10 | 0.10 | 45 | 1010.3 |
| 20260502234551 | 12 | 0 | 0.0 | 1.6 | 0.00 | 0.10 | 0.10 | 45 | 1010.2 |
| 20260502233049 | 12 | 0 | 0.0 | 4.8 | 0.00 | 0.10 | 0.10 | 44 | 1010.0 |
| 20260502231551 | 13 | 0 | 0.0 | 9.7 | 0.00 | 0.10 | 0.10 | 43 | 1009.9 |
| 20260502230044 | 15 | 244 | 1.6 | 6.4 | 0.00 | 0.10 | 0.10 | 38 | 1009.7 |
| 20260502224552 | 15 | 263 | 1.6 | 16.1 | 0.00 | 0.10 | 0.10 | 40 | 1009.7 |
| 20260502223047 | 16 | 0 | 0.0 | 3.2 | 0.00 | 0.10 | 0.10 | 38 | 1009.6 |
| 20260502221543 | 16 | 236 | 0.0 | 9.7 | 0.00 | 0.10 | 0.10 | 38 | 1009.6 |
| 20260502220044 | 16 | 0 | 0.0 | 3.2 | 0.00 | 0.10 | 0.10 | 41 | 1009.5 |
| 20260502214547 | 16 | 0 | 3.2 | 17.7 | 0.00 | 0.10 | 0.10 | 37 | 1009.4 |
| 20260502213047 | 16 | 277 | 6.4 | 17.7 | 0.00 | 0.10 | 0.10 | 38 | 1009.3 |
| 20260502211549 | 15 | 0 | 0.0 | 12.9 | 0.00 | 0.10 | 0.10 | 41 | 1009.3 |
| 20260502210104 | 15 | 0 | 1.6 | 16.1 | 0.00 | 0.10 | 0.10 | 42 | 1009.3 |
| 20260502204554 | 15 | 0 | 1.6 | 33.8 | 0.00 | 0.10 | 0.10 | 42 | 1009.2 |
| 20260502203048 | 15 | 266 | 1.6 | 11.3 | 0.00 | 0.10 | 0.10 | 41 | 1009.3 |
| 20260502201551 | 15 | 246 | 3.2 | 14.5 | 0.00 | 0.10 | 0.10 | 46 | 1009.5 |
| 20260502200052 | 14 | 0 | 0.0 | 1.6 | 0.00 | 0.10 | 0.10 | 53 | 1009.7 |
| 20260502194546 | 14 | 0 | 0.0 | 1.6 | 0.00 | 0.10 | 0.10 | 51 | 1009.8 |
| 20260502193049 | 14 | 0 | 0.0 | 6.4 | 0.00 | 0.10 | 0.10 | 52 | 1010.0 |
| 20260502191556 | 14 | 0 | 0.0 | 4.8 | 0.00 | 0.10 | 0.10 | 52 | 1010.3 |
| 20260502190057 | 14 | 0 | 0.0 | 1.6 | 0.00 | 0.10 | 0.10 | 54 | 1010.5 |
| 20260502184558 | 14 | 0 | 0.0 | 1.6 | 0.00 | 0.10 | 0.10 | 58 | 1010.6 |
| 20260502183105 | 14 | 0 | 0.0 | 6.4 | 0.00 | 0.10 | 0.10 | 62 | 1010.6 |
| 20260502181550 | 14 | 0 | 0.0 | 1.6 | 0.00 | 0.10 | 0.10 | 56 | 1010.7 |
| 20260502163054 | 13 | 0 | 0.0 | 12.9 | 0.00 | 0.10 | 0.10 | 65 | 1011.4 |
| 20260502161544 | 13 | 0 | 0.0 | 3.2 | 0.00 | 0.10 | 0.10 | 67 | 1011.4 |
| 20260502151549 | 13 | 274 | 0.0 | 4.8 | 0.00 | 0.10 | 0.10 | 70 | 1011.5 |
| 20260502123048 | 10 | 0 | 0.0 | 4.8 | 0.00 | 0.10 | 0.10 | 92 | 1011.7 |
| 20260502121551 | 9 | 0 | 1.6 | 8.0 | 0.00 | 0.10 | 0.10 | 93 | 1011.7 |
| 20260502114548 | 9 | 0 | 0.0 | 1.6 | 0.00 | 0.10 | 0.10 | 96 | 1011.6 |
| 20260502113051 | 9 | 0 | 0.0 | 0.0 | 0.00 | 0.10 | 0.10 | 96 | 1011.7 |
| 20260502111551 | 8 | 0 | 0.0 | 0.0 | 0.00 | 0.10 | 0.10 | 96 | 1011.5 |
| 20260502110044 | 8 | 0 | 0.0 | 0.0 | 0.03 | 0.10 | 0.10 | 96 | 1011.2 |
| 20260502104549 | 8 | 0 | 0.0 | 0.0 | 0.03 | 0.10 | 0.10 | 95 | 1011.2 |
| 20260502103047 | 8 | 0 | 0.0 | 0.0 | 0.05 | 0.10 | 0.10 | 95 | 1011.1 |
| 20260502101553 | 8 | 0 | 0.0 | 0.0 | 0.08 | 0.10 | 0.10 | 95 | 1011.2 |
| 20260502070101 | 10 | 0 | 0.0 | 0.0 | 0.00 | 0.00 | 0.00 | 90 | 1011.1 |
| 20260502064548 | 10 | 0 | 0.0 | 0.0 | 0.00 | 0.00 | 0.00 | 88 | 1011.0 |
| 20260502063048 | 10 | 0 | 0.0 | 0.0 | 0.00 | 0.00 | 0.00 | 89 | 1010.9 |
| 20260502061545 | 10 | 0 | 0.0 | 0.0 | 0.00 | 0.00 | 0.00 | 88 | 1011.0 |
| 20260502060045 | 10 | 0 | 0.0 | 0.0 | 0.00 | 0.00 | 0.00 | 88 | 1011.2 |
| 20260502054544 | 10 | 0 | 0.0 | 0.0 | 0.00 | 0.03 | 0.00 | 87 | 1011.3 |
| 20260502053059 | 10 | 0 | 0.0 | 0.0 | 0.00 | 0.03 | 0.00 | 86 | 1011.2 |
| 20260502051604 | 10 | 0 | 0.0 | 0.0 | 0.00 | 0.03 | 0.00 | 85 | 1011.2 |
| 20260502050051 | 10 | 0 | 0.0 | 0.0 | 0.00 | 0.03 | 0.00 | 85 | 1011.3 |
| 20260502044541 | 10 | 0 | 0.0 | 0.0 | 0.00 | 0.03 | 0.00 | 85 | 1011.0 |
| 20260502043055 | 10 | 0 | 0.0 | 0.0 | 0.00 | 0.03 | 0.00 | 84 | 1011.2 |
| 20260502041602 | 10 | 0 | 0.0 | 0.0 | 0.00 | 0.03 | 0.00 | 83 | 1011.4 |
| 20260502040045 | 10 | 0 | 0.0 | 0.0 | 0.00 | 0.03 | 0.00 | 82 | 1011.2 |
| 20260502034548 | 10 | 0 | 0.0 | 0.0 | 0.00 | 0.03 | 0.03 | 82 | 1011.2 |
| 20260502033059 | 10 | 0 | 0.0 | 0.0 | 0.00 | 0.03 | 0.03 | 81 | 1011.2 |
| 20260502031549 | 10 | 0 | 0.0 | 0.0 | 0.00 | 0.03 | 0.03 | 80 | 1011.3 |
| 20260502030048 | 10 | 0 | 0.0 | 0.0 | 0.00 | 0.03 | 0.03 | 79 | 1011.4 |
| 20260502024547 | 11 | 0 | 0.0 | 0.0 | 0.00 | 0.03 | 0.03 | 78 | 1011.6 |
| 20260502023051 | 11 | 0 | 0.0 | 0.0 | 0.00 | 0.03 | 0.03 | 77 | 1011.4 |
| 20260502021542 | 11 | 0 | 0.0 | 0.0 | 0.00 | 0.03 | 0.03 | 77 | 1011.5 |
| 20260502020054 | 11 | 0 | 0.0 | 0.0 | 0.00 | 0.03 | 0.03 | 76 | 1011.5 |
| 20260502014543 | 11 | 0 | 0.0 | 0.0 | 0.00 | 0.03 | 0.03 | 75 | 1011.4 |
| 20260502013048 | 11 | 0 | 0.0 | 0.0 | 0.00 | 0.03 | 0.03 | 73 | 1011.1 |